Location: Roc des P�zouls
(43.9667°N, 3.5500°E)
Time: 16:58:52
(UTC+00:00)

Cosmos 1802 Rocket - Pass Details

Date: 14 November 2019
Orbit: 954 x 1012 km, 82.9° (Epoch: 05 December)

Event Time Altitude Azimuth Distance (km) Brightness Sun altitude
Rises 05:16:59 0° 185° (S) 3,727 7.1 -14.8°
Reaches altitude 10° 05:19:31 10° 185° (S) 2,783 6.5 -14.4°
Maximum altitude 05:25:56 89° 101° (ESE) 1,018 4.1 -13.2°
Drops below altitude 10° 05:32:24 10° 8° (N) 2,795 6.3 -12.1°
Sets 05:34:56 0° 9° (N) 3,744 7.0 -11.7°
